1516593600.03,62863,3.0,72242.3,-19.85,-25.29,-25.45,0,*66
1516593601.32,62864,3.0,72242.3,-19.85,-25.45,-25.55,0,*6A
1516593602.58,62865,3.06,72246.3,-19.85,-25.61,-25.75,0,*6F
1516593603.85,62866,3.0,72238.0,-19.85,-25.61,-25.75,0,*6C
1516593605.12,62867,3.0,72240.8,-19.85,-25.87,-25.97,0,*69
1516593606.36,62868,3.0,72242.0,-19.85,-25.87,-25.91,0,*60
1516593607.62,62869,3.0,72240.8,-19.85,-25.75,-25.91,0,*6C
1516593608.88,62870,3.0,72238.0,-19.85,-25.75,-25.91,0,*64
1516593610.15,62871,3.0,72238.0,-19.85,-25.75,-25.87,0,*62
1516593611.41,62872,3.0,72236.0,-19.89,-25.75,-25.91,0,*6A
1516593612.69,62873,3.0,72236.3,-19.85,-25.45,-25.45,0,*6D
1516593613.91,62874,3.0,72234.5,-19.85,-24.93,-24.93,0,*6A
1516593615.17,62875,3.0,72236.3,-19.85,-25.23,-25.45,0,*6B
1516593616.42,62876,3.0,72238.5,-19.85,-25.61,-25.61,0,*68
1516593617.66,62877,3.0,72238.3,-19.83,-25.39,-25.55,0,*65
1516593618.93,62878,3.0,72238.8,-19.83,-25.55,-25.71,0,*66
1516593620.14,62879,3.0,72240.8,-19.83,-25.87,-25.91,0,*66
1516593621.4,62880,3.0,72238.8,-19.85,-25.91,-25.97,0,*67
1516593622.67,62881,3.06,72242.3,-19.85,-25.97,-26.07,0,*6A
1516593623.93,62882,3.0,72240.5,-19.89,-25.81,-25.91,0,*6E
1516593625.19,62883,3.0,72242.8,-19.85,-25.75,-25.87,0,*6F
1516593626.48,62884,3.0,72240.8,-19.85,-25.45,-25.55,0,*64
1516593627.78,62885,3.0,72242.8,-19.85,-25.71,-25.75,0,*60
1516593629.05,62886,3.0,72242.8,-19.85,-25.61,-25.71,0,*66
1516593630.32,62887,3.0,72236.0,-19.85,-25.55,-25.61,0,*61
1516593631.56,62888,3.0,72242.5,-19.85,-25.87,-25.91,0,*6E
1516593632.86,62889,3.0,72240.5,-19.89,-25.71,-25.75,0,*60
1516593634.13,62890,3.0,72242.3,-19.85,-25.87,-25.97,0,*61
1516593635.39,62891,3.0,72242.8,-19.85,-25.71,-25.87,0,*68
1516593636.6,62892,3.0,72242.3,-19.83,-25.91,-26.07,0,*68
1516593637.87,62893,3.06,72244.8,-19.85,-25.75,-25.87,0,*6E
1516593639.17,62894,3.0,72240.3,-19.85,-25.55,-25.75,0,*66
1516593640.4,62895,3.0,72240.0,-19.85,-25.87,-25.91,0,*62
1516593641.64,62896,3.0,72242.3,-19.85,-25.91,-25.91,0,*66
1516593642.9,62897,3.0,72242.0,-19.85,-25.91,-25.97,0,*61
1516593644.14,62898,3.0,72240.0,-19.85,-26.07,-26.23,0,*6E
1516593645.43,62899,3.0,72242.8,-19.85,-25.75,-25.97,0,*65
1516593646.69,62900,3.0,72244.0,-19.89,-25.75,-25.91,0,*6E
1516593647.96,62901,3.0,72244.8,-19.85,-25.71,-25.87,0,*60
1516593649.23,62902,3.0,72242.5,-19.85,-25.71,-25.87,0,*63
1516593650.52,62903,3.06,72246.8,-19.89,-25.81,-25.97,0,*60
1516593651.81,62904,3.06,72246.8,-19.89,-26.17,-26.29,0,*6D
1516593653.1,62905,3.0,72242.5,-19.85,-26.13,-26.29,0,*64
1516593654.34,62906,3.0,72242.3,-19.85,-26.23,-26.39,0,*65
1516593655.63,62907,3.0,72240.3,-19.89,-26.17,-26.33,0,*65
1516593656.9,62908,3.0,72240.0,-19.85,-26.13,-26.23,0,*63
1516593658.19,62909,3.0,72242.0,-19.89,-26.17,-26.29,0,*60
1516593659.46,62910,3.06,72244.3,-19.89,-26.03,-26.13,0,*64
1516593660.7,62911,3.0,72242.0,-19.93,-25.87,-26.03,0,*60
1516593661.97,62912,3.0,72242.3,-19.91,-25.97,-26.13,0,*61
1516593663.23,62913,3.0,72242.3,-19.91,-26.13,-26.29,0,*66
1516593664.49,62914,3.0,72240.3,-19.89,-25.75,-25.91,0,*6B
1516593665.75,62915,3.0,72240.3,-19.89,-25.45,-25.61,0,*66
1516593667.01,62916,3.0,72238.5,-19.89,-25.75,-25.91,0,*69
1516593668.24,62917,3.0,72240.5,-19.91,-25.81,-25.91,0,*6A
1516593669.47,62918,3.0,72244.8,-19.91,-25.81,-25.91,0,*65
1516593670.68,62919,3.0,72240.5,-19.91,-25.65,-25.91,0,*6E
1516593671.91,62920,3.0,72246.8,-19.91,-25.75,-25.91,0,*65
1516593673.17,62921,3.0,72242.5,-19.91,-25.75,-25.81,0,*65
1516593674.39,62922,3.0,72242.5,-19.91,-25.49,-25.61,0,*67
1516593675.68,62923,3.0,72240.5,-19.89,-25.75,-25.81,0,*6E
1516593676.97,62924,3.0,72244.8,-19.89,-25.81,-25.97,0,*65
1516593678.23,62925,3.0,72242.5,-19.89,-25.91,-25.97,0,*65
1516593679.47,62926,3.0,72240.5,-19.91,-25.87,-25.97,0,*68
1516593680.69,62927,3.0,72242.3,-19.91,-25.49,-25.61,0,*62
1516593681.92,62928,3.0,72240.5,-19.91,-25.65,-25.81,0,*6D
1516593683.13,62929,3.0,72240.3,-19.91,-25.49,-25.65,0,*68
1516593684.43,62930,3.0,72240.0,-19.85,-25.55,-25.71,0,*6D
1516593685.67,62931,3.0,72242.0,-19.89,-25.61,-25.65,0,*62
1516593686.93,62932,3.0,72240.3,-19.89,-25.19,-25.45,0,*6C
1516593688.19,62933,3.06,72240.8,-19.89,-25.19,-25.45,0,*6D
1516593689.48,62934,3.0,72240.8,-19.89,-25.75,-25.81,0,*68
1516593690.74,62935,3.0,72242.3,-19.89,-25.61,-25.75,0,*67
1516593692.03,62936,3.0,72240.3,-19.85,-25.29,-25.55,0,*66
1516593693.28,62937,3.0,72242.0,-19.89,-25.61,-25.65,0,*64
1516593694.57,62938,3.0,72242.8,-19.85,-25.55,-25.71,0,*65
1516593695.86,62939,3.0,72242.5,-19.85,-25.45,-25.55,0,*63
1516593697.1,62940,3.0,72240.8,-19.85,-25.13,-25.39,0,*64
1516593698.37,62941,3.0,72246.0,-19.89,-25.03,-25.13,0,*60
1516593699.61,62942,3.0,72244.8,-19.85,-25.13,-25.13,0,*6E
1516593700.85,62943,3.0,72246.8,-19.85,-24.97,-25.13,0,*62
1516593702.13,62944,3.0,72240.5,-19.85,-25.29,-25.45,0,*62
1516593703.4,62945,3.0,72240.5,-19.85,-25.71,-25.87,0,*60
1516593704.66,62946,3.0,72238.8,-19.85,-25.87,-25.97,0,*6B
1516593705.93,62947,3.0,72238.0,-19.85,-25.75,-25.91,0,*61
1516593707.22,62948,3.0,72236.3,-19.85,-25.45,-25.71,0,*63
1516593708.48,62949,3.0,72238.8,-19.85,-25.39,-25.45,0,*6E
1516593709.74,62950,3.0,72240.8,-19.85,-25.39,-25.55,0,*67
1516593710.98,62951,3.0,72242.8,-19.85,-25.09,-25.23,0,*64
1516593712.21,62952,3.0,72242.5,-19.81,-24.93,-25.09,0,*69
1516593713.42,62953,3.0,72240.8,-19.83,-24.97,-25.13,0,*65
1516593714.65,62954,3.0,72240.8,-19.81,-25.19,-25.23,0,*64
1516593715.92,62955,3.0,72240.5,-19.81,-25.35,-25.55,0,*6A
1516593717.22,62956,3.0,72240.5,-19.81,-25.55,-25.71,0,*69
1516593718.46,62957,3.0,72246.0,-19.81,-25.39,-25.39,0,*6E
1516593719.7,62958,3.0,72242.5,-19.81,-25.39,-25.49,0,*66
1516593720.94,62959,3.0,72244.8,-19.81,-25.19,-25.39,0,*62
1516593722.18,62960,3.0,72240.5,-19.81,-25.23,-25.49,0,*66
1516593723.42,62961,3.0,72240.5,-19.83,-25.61,-25.75,0,*6C
1516593724.65,62962,3.0,72240.3,-19.83,-25.75,-25.87,0,*67
1516593725.89,62963,3.0,72238.8,-19.83,-25.13,-25.29,0,*62
1516593727.13,62964,3.0,72246.0,-19.83,-25.13,-25.29,0,*65
1516593728.4,62965,3.0,72240.0,-19.79,-25.55,-25.71,0,*6E
1516593729.65,62966,3.0,72238.8,-19.79,-25.65,-25.71,0,*6E
1516593730.89,62967,3.0,72242.3,-19.79,-25.39,-25.55,0,*60
1516593732.14,62968,3.0,72240.3,-19.79,-25.65,-25.71,0,*60
1516593733.43,62969,3.0,72242.8,-19.81,-25.71,-25.81,0,*6C
1516593734.69,62970,3.0,72240.8,-19.81,-25.81,-25.87,0,*6D
1516593735.96,62971,3.0,72242.0,-19.81,-25.49,-25.71,0,*61
1516593737.26,62972,3.0,72236.0,-19.81,-25.55,-25.71,0,*6F
1516593738.53,62973,3.0,72236.5,-19.81,-25.65,-25.71,0,*6D
1516593739.83,62974,3.0,72242.5,-19.81,-25.55,-25.71,0,*69
1516593741.09,62975,3.0,72238.5,-19.81,-25.71,-25.87,0,*67
1516593742.36,62976,3.0,72240.5,-19.81,-25.65,-25.71,0,*68
1516593743.66,62977,3.0,72238.0,-19.81,-25.55,-25.71,0,*6A
1516593744.9,62978,3.0,72240.8,-19.83,-25.71,-25.87,0,*68
1516593746.19,62979,3.0,72242.3,-19.81,-25.71,-25.81,0,*6D
1516593747.49,62980,3.0,72238.3,-19.81,-25.71,-25.81,0,*6B
1516593748.75,62981,3.0,72238.3,-19.81,-25.71,-25.87,0,*6C
1516593750.05,62982,3.0,72236.5,-19.81,-25.71,-25.81,0,*69
1516593751.31,62983,3.0,72236.3,-19.81,-25.39,-25.55,0,*6D
1516593752.57,62984,3.0,72240.8,-19.81,-25.81,-25.87,0,*66
1516593753.84,62985,3.0,72236.3,-19.81,-25.71,-25.87,0,*68
1516593755.14,62986,3.0,72236.8,-19.81,-25.55,-25.71,0,*64
1516593756.41,62987,3.0,72236.5,-19.81,-25.55,-25.65,0,*60
1516593757.68,62988,3.0,72242.3,-19.81,-25.65,-25.71,0,*69
1516593758.92,62989,3.0,72238.5,-19.81,-25.49,-25.65,0,*63
1516593760.16,62990,3.0,72240.0,-19.81,-25.35,-25.35,0,*65
1516593761.42,62991,3.0,72244.3,-19.81,-25.35,-25.55,0,*62
1516593762.63,62992,3.0,72240.3,-19.79,-25.23,-25.39,0,*6B
1516593763.87,62993,3.0,72242.5,-19.79,-25.65,-25.81,0,*6B
1516593765.09,62994,3.0,72240.0,-19.79,-25.91,-26.03,0,*6E
1516593766.36,62995,3.0,72240.0,-19.81,-25.71,-25.87,0,*69
1516593767.65,62996,3.0,72236.3,-19.81,-25.71,-25.81,0,*6C
1516593768.91,62997,3.0,72240.3,-19.81,-25.81,-25.87,0,*64
1516593770.15,62998,3.0,72244.8,-19.81,-25.87,-25.91,0,*6A
1516593771.42,62999,3.0,72242.0,-19.83,-25.71,-25.97,0,*66
1516593772.68,63000,3.0,72246.0,-19.83,-26.13,-26.29,0,*6F
1516593773.92,63001,3.0,72244.3,-19.81,-26.07,-26.23,0,*63
1516593775.18,63002,3.0,72244.8,-19.83,-26.13,-26.29,0,*6D
1516593776.42,63003,3.0,72244.8,-19.81,-25.91,-26.07,0,*6B
1516593777.65,63004,3.0,72242.8,-19.83,-25.75,-25.87,0,*6F
1516593778.87,63005,3.0,72242.5,-19.83,-25.87,-26.07,0,*68
1516593780.1,63006,3.0,72244.0,-19.81,-26.07,-26.23,0,*64
1516593781.34,63007,3.0,72246.5,-19.83,-25.97,-26.07,0,*6B
1516593782.58,63008,3.0,72242.8,-19.81,-25.91,-26.07,0,*60
1516593783.82,63009,3.0,72240.3,-19.83,-25.87,-25.97,0,*6E
1516593785.06,63010,3.0,72240.0,-19.83,-25.75,-25.87,0,*6A
1516593786.32,63011,3.0,72242.0,-19.83,-25.97,-26.13,0,*69
1516593787.58,63012,3.0,72246.0,-19.81,-26.07,-26.17,0,*66
1516593788.85,63013,3.0,72240.5,-19.83,-26.13,-26.29,0,*6D
1516593790.11,63014,3.0,72244.0,-19.85,-25.75,-25.87,0,*68
1516593791.4,63015,3.0,72244.5,-19.85,-25.97,-26.13,0,*6B
1516593792.67,63016,3.0,72244.3,-19.83,-25.97,-26.13,0,*6E
1516593793.91,63017,3.0,72240.5,-19.83,-25.61,-25.71,0,*61
1516593795.18,63018,3.0,72236.3,-19.83,-25.71,-25.75,0,*6B
1516593796.42,63019,3.0,72238.3,-19.83,-25.97,-26.07,0,*64
1516593797.66,63020,3.0,72238.8,-19.83,-25.97,-26.23,0,*68
1516593798.9,63021,3.0,72242.8,-19.83,-26.13,-26.39,0,*6D
1516593800.17,63022,3.0,72240.0,-19.83,-25.97,-25.97,0,*66
1516593801.41,63023,3.0,72242.3,-19.85,-25.39,-25.61,0,*6C
1516593802.69,63024,3.0,72242.3,-19.85,-25.55,-25.61,0,*61
1516593803.97,63025,3.0,72240.8,-19.89,-25.75,-25.81,0,*60
1516593805.24,63026,3.0,72238.0,-19.85,-25.61,-25.75,0,*61
1516593806.48,63027,3.0,72242.8,-19.85,-25.91,-26.07,0,*69
1516593807.72,63028,3.0,72244.0,-19.85,-25.91,-26.07,0,*66
1516593808.98,63029,3.0,72244.8,-19.85,-26.13,-26.23,0,*68
1516593810.19,63030,3.0,72244.5,-19.83,-26.07,-26.23,0,*63
1516593811.42,63031,3.0,72244.0,-19.83,-25.75,-25.91,0,*6E
1516593812.68,63032,3.0,72244.3,-19.89,-25.65,-25.81,0,*67
1516593813.95,63033,3.0,72244.0,-19.85,-25.91,-26.13,0,*69
1516593815.18,63034,3.0,72246.0,-19.83,-25.91,-25.97,0,*67
1516593816.45,63035,3.0,72248.8,-19.85,-25.75,-25.87,0,*6B
1516593817.71,63036,3.0,72248.3,-19.85,-25.71,-25.91,0,*6B
1516593818.98,63037,3.0,72248.8,-19.85,-25.75,-25.87,0,*69
1516593820.25,63038,3.0,72250.5,-19.85,-25.87,-25.97,0,*6A
1516593821.52,63039,3.0,72250.3,-19.89,-26.03,-26.17,0,*63
1516593822.73,63040,3.0,72250.5,-19.83,-26.23,-26.39,0,*69
1516593823.96,63041,3.0,72246.5,-19.83,-26.13,-26.23,0,*60
1516593825.22,63042,3.0,72246.3,-19.89,-26.33,-26.49,0,*67
1516593826.49,63043,3.0,72246.8,-19.89,-26.33,-26.45,0,*6A
1516593827.75,63044,3.0,72246.3,-19.89,-26.29,-26.49,0,*6A
1516593829.04,63045,3.0,72244.3,-19.89,-26.17,-26.17,0,*6D
1516593830.31,63046,3.0,72244.5,-19.89,-26.03,-26.17,0,*6B
1516593831.6,63047,3.0,72244.8,-19.89,-26.29,-26.33,0,*64
1516593832.84,63048,3.0,72244.8,-19.85,-26.07,-26.23,0,*6A
1516593834.11,63049,3.0,72242.8,-19.89,-26.03,-26.29,0,*69
1516593835.39,63050,3.0,72246.3,-19.89,-26.03,-26.13,0,*68
1516593836.63,63051,3.0,72246.5,-19.89,-25.91,-26.03,0,*60
1516593837.91,63052,3.0,72248.0,-19.93,-25.75,-25.81,0,*6B
1516593839.17,63053,3.0,72248.8,-19.89,-25.19,-25.29,0,*69
1516593840.44,63054,3.0,72242.8,-19.89,-25.61,-25.75,0,*68
1516593841.71,63055,3.0,72242.3,-19.89,-25.61,-25.75,0,*69
1516593842.95,63056,3.0,72246.5,-19.89,-25.61,-25.61,0,*6F
1516593844.25,63057,3.0,72242.8,-19.85,-25.71,-25.75,0,*66
1516593845.55,63058,3.0,72244.3,-19.85,-25.55,-25.75,0,*6F
1516593846.78,63059,3.0,72242.5,-19.89,-25.65,-25.91,0,*6B
1516593848.07,63060,3.0,72240.5,-19.85,-25.29,-25.45,0,*6C
1516593849.36,63061,3.0,72240.3,-19.85,-25.71,-25.75,0,*63
1516593850.65,63062,3.0,72240.8,-19.85,-25.45,-25.55,0,*65
1516593851.94,63063,3.0,72236.3,-19.85,-25.29,-25.55,0,*6E
1516593853.2,63064,3.0,72238.3,-19.85,-25.23,-25.29,0,*68
1516593854.44,63065,3.0,72238.3,-19.83,-25.39,-25.55,0,*6F
1516593855.65,63066,3.0,72242.8,-19.83,-25.23,-25.39,0,*6D
1516593856.91,63067,3.0,72238.3,-19.83,-25.29,-25.45,0,*6D
1516593858.15,63068,3.0,72238.3,-19.83,-25.39,-25.55,0,*62
1516593859.39,63069,3.0,72242.5,-19.83,-25.39,-25.55,0,*63
1516593860.6,63070,3.0,72238.8,-19.83,-25.23,-25.39,0,*6A
1516593861.84,63071,3.0,72240.3,-19.81,-25.35,-25.39,0,*6E
1516593863.09,63072,3.0,72240.3,-19.83,-25.29,-25.45,0,*69
1516593864.34,63073,3.0,72242.0,-19.83,-25.45,-25.45,0,*62
1516593865.6,63074,3.0,72238.8,-19.83,-25.45,-25.55,0,*64
1516593866.85,63075,3.0,72238.8,-19.81,-25.49,-25.49,0,*66
1516593868.07,63076,3.0,72238.8,-19.83,-25.39,-25.49,0,*60
1516593869.3,63077,3.0,72238.8,-19.81,-25.09,-25.19,0,*65
1516593870.54,63078,3.0,72240.3,-19.79,-25.23,-25.29,0,*66
1516593871.78,63079,3.0,72238.3,-19.81,-25.65,-25.65,0,*6A
1516593873.05,63080,3.0,72240.8,-19.81,-25.39,-25.55,0,*66
1516593874.29,63081,3.0,72240.3,-19.79,-25.49,-25.55,0,*67
1516593875.53,63082,3.0,72240.8,-19.81,-25.09,-25.19,0,*6F
1516593876.76,63083,3.0,72240.5,-19.81,-25.09,-25.19,0,*6E
1516593878.0,63084,3.0,72244.3,-19.79,-25.03,-25.19,0,*64
1516593879.21,63085,3.0,72244.8,-19.79,-25.19,-25.35,0,*60
1516593880.45,63086,3.0,72242.5,-19.79,-25.65,-25.71,0,*68
1516593881.75,63087,3.0,72240.0,-19.77,-25.55,-25.81,0,*6B
1516593882.99,63088,3.0,72240.0,-19.79,-25.65,-25.71,0,*66
1516593884.24,63089,3.0,72238.5,-19.77,-25.49,-25.65,0,*62
1516593885.47,63090,3.0,72238.3,-19.79,-25.65,-25.81,0,*60
1516593886.74,63091,3.0,72242.3,-19.77,-25.65,-25.71,0,*60
1516593888.01,63092,3.0,72240.8,-19.77,-25.65,-25.71,0,*63
1516593889.25,63093,3.0,72240.8,-19.79,-25.71,-25.87,0,*60
1516593890.47,63094,3.0,72240.5,-19.79,-25.39,-25.49,0,*69
1516593891.72,63095,3.0,72242.5,-19.77,-25.49,-25.49,0,*61
1516593892.93,63096,3.0,72240.5,-19.79,-25.19,-25.35,0,*62
1516593894.15,63097,3.0,72242.8,-19.79,-25.35,-25.49,0,*66
1516593895.41,63098,3.0,72242.8,-19.73,-25.19,-25.29,0,*6B
1516593896.67,63099,3.0,72244.5,-19.77,-25.39,-25.55,0,*67
1516593897.94,63100,3.0,72240.5,-19.73,-25.13,-25.29,0,*61
1516593899.2,63101,3.0,72242.3,-19.77,-25.39,-25.55,0,*67
1516593900.44,63102,3.0,72242.3,-19.77,-25.09,-25.35,0,*61
1516593901.68,63103,3.0,72244.8,-19.77,-25.23,-25.39,0,*64
1516593902.91,63104,3.0,72242.0,-19.77,-25.09,-25.23,0,*60
1516593904.14,63105,3.0,72246.8,-19.73,-25.19,-25.35,0,*63
1516593905.37,63106,3.0,72244.5,-19.71,-25.13,-25.23,0,*6F
1516593906.63,63107,3.0,72244.5,-19.71,-25.29,-25.45,0,*67
1516593907.9,63108,3.0,72244.3,-19.73,-25.61,-25.81,0,*6E
1516593909.14,63109,3.0,72246.5,-19.73,-25.35,-25.61,0,*60
1516593910.39,63110,3.0,72242.5,-19.71,-25.45,-25.61,0,*6D
1516593911.66,63111,3.0,72242.0,-19.71,-25.81,-25.97,0,*6D
1516593912.93,63112,3.0,72242.0,-19.73,-26.03,-26.17,0,*6E
1516593914.2,63113,3.0,72248.0,-19.73,-25.81,-26.03,0,*63
1516593915.42,63114,3.0,72246.8,-19.71,-25.91,-25.91,0,*6F
1516593916.65,63115,3.0,72248.0,-19.77,-26.07,-26.23,0,*6E
1516593917.92,63116,3.0,72246.3,-19.73,-26.03,-26.17,0,*6A
1516593919.21,63117,3.0,72246.5,-19.73,-26.13,-26.29,0,*67
1516593920.48,63118,3.0,72246.5,-19.73,-26.03,-26.13,0,*60
1516593921.73,63119,3.0,72246.3,-19.77,-26.03,-26.07,0,*60
1516593922.97,63120,3.0,72244.5,-19.77,-25.91,-26.03,0,*66
1516593924.21,63121,3.0,72244.5,-19.77,-25.91,-26.03,0,*67
1516593925.45,63122,3.0,72244.0,-19.77,-25.91,-26.03,0,*64
1516593926.75,63123,3.0,72240.8,-19.77,-25.71,-25.81,0,*62
1516593928.04,63124,3.0,72236.0,-19.77,-25.71,-25.81,0,*65
1516593929.31,63125,3.0,72242.8,-19.77,-25.55,-25.65,0,*68
1516593930.58,63126,3.0,72238.3,-19.77,-25.65,-25.71,0,*6D
1516593931.82,63127,3.0,72238.8,-19.77,-25.35,-25.49,0,*62
1516593933.05,63128,3.0,72246.0,-19.77,-25.09,-25.19,0,*67
1516593934.29,63129,3.0,72242.3,-19.77,-24.93,-25.09,0,*65
1516593935.55,63130,3.0,72240.8,-19.77,-25.03,-25.19,0,*64
1516593936.81,63131,3.0,72242.0,-19.73,-25.35,-25.45,0,*6D
1516593938.06,63132,3.0,72240.0,-19.73,-25.19,-25.29,0,*6A
1516593939.31,63133,3.0,72240.3,-19.73,-25.49,-25.65,0,*66
1516593940.58,63134,3.0,72240.0,-19.71,-25.45,-25.55,0,*6C
1516593941.83,63135,3.0,72238.8,-19.71,-25.39,-25.45,0,*67
1516593943.08,63136,3.0,72244.5,-19.71,-25.39,-25.55,0,*65
1516593944.35,63137,3.0,72242.5,-19.73,-25.45,-25.49,0,*60
1516593945.59,63138,3.0,72240.0,-19.71,-25.13,-25.29,0,*68
1516593946.86,63139,3.0,72244.3,-19.71,-25.29,-25.45,0,*6A
1516593948.11,63140,3.0,72240.5,-19.71,-25.45,-25.61,0,*68
1516593949.36,63141,3.0,72238.0,-19.73,-25.49,-25.61,0,*67
1516593950.61,63142,3.0,72242.5,-19.71,-25.45,-25.61,0,*6A
1516593951.89,63143,3.0,72240.0,-19.71,-25.71,-25.71,0,*6D
1516593953.14,63144,3.0,72240.5,-19.71,-25.39,-25.45,0,*61
1516593954.36,63145,3.0,72238.8,-19.71,-25.23,-25.39,0,*60
1516593955.63,63146,3.0,72240.0,-19.71,-25.29,-25.45,0,*62
1516593956.88,63147,3.0,72236.0,-19.71,-25.29,-25.39,0,*68
1516593958.12,63148,3.0,72236.3,-19.71,-25.39,-25.45,0,*6D
1516593959.41,63149,3.0,72238.5,-19.71,-25.55,-25.71,0,*61
1516593960.65,63150,3.0,72238.3,-19.71,-25.45,-25.61,0,*69
1516593961.9,63151,3.0,72236.3,-19.69,-25.23,-25.39,0,*6C
1516593963.17,63152,3.0,72236.8,-19.67,-24.87,-25.03,0,*67
1516593964.42,63153,3.0,72238.5,-19.69,-25.09,-25.13,0,*6E
1516593965.64,63154,3.0,72238.8,-19.67,-25.09,-25.23,0,*64
1516593966.89,63155,3.0,72240.3,-19.67,-25.03,-25.19,0,*66
1516593968.14,63156,3.0,72242.5,-19.67,-25.35,-25.55,0,*68
1516593969.39,63157,3.0,72238.8,-19.69,-25.39,-25.39,0,*61
1516593970.66,63158,3.0,72240.3,-19.69,-25.23,-25.29,0,*64
1516593971.92,63159,3.0,72242.0,-19.67,-25.49,-25.55,0,*6C
1516593973.15,63160,3.0,72242.8,-19.67,-25.49,-25.65,0,*65
1516593974.45,63161,3.0,72238.8,-19.69,-25.55,-25.71,0,*62
1516593975.71,63162,3.0,72242.3,-19.67,-25.39,-25.55,0,*63
1516593976.96,63163,3.0,72242.0,-19.67,-25.71,-25.87,0,*61
1516593978.18,63164,3.0,72246.3,-19.67,-25.87,-25.91,0,*68
1516593979.43,63165,3.0,72244.0,-19.67,-26.07,-26.17,0,*6F
1516593980.69,63166,3.0,72244.8,-19.67,-25.71,-25.87,0,*64
1516593981.96,63167,3.0,72244.5,-19.69,-25.91,-25.97,0,*64
1516593983.21,63168,3.0,72246.3,-19.69,-25.87,-26.07,0,*66
1516593984.49,63169,3.0,72248.3,-19.69,-26.07,-26.13,0,*69
1516593985.73,63170,3.0,72246.0,-19.69,-25.91,-26.07,0,*68
1516593986.98,63171,3.0,72246.0,-19.69,-26.07,-26.23,0,*63
1516593988.23,63172,3.0,72248.3,-19.69,-25.91,-26.07,0,*6A
1516593989.53,63173,3.0,72250.0,-19.69,-25.71,-25.75,0,*63
1516593990.75,63174,3.0,72248.3,-19.67,-25.19,-25.23,0,*67
1516593992.01,63175,3.0,72246.5,-19.67,-25.49,-25.55,0,*62
1516593993.31,63176,3.0,72244.0,-19.69,-25.75,-25.75,0,*62
1516593994.59,63177,3.0,72242.0,-19.69,-25.61,-25.71,0,*62
1516593995.87,63178,3.0,72240.5,-19.69,-25.61,-25.71,0,*6D
1516593997.14,63179,3.0,72242.5,-19.69,-25.39,-25.45,0,*66
1516593998.36,63180,3.0,72240.5,-19.67,-25.19,-25.23,0,*6C
1516593999.62,63181,3.0,72240.8,-19.67,-25.49,-25.55,0,*69
1516594000.87,63182,3.0,72238.5,-19.67,-25.65,-25.71,0,*62
1516594002.15,63183,3.0,72236.5,-19.67,-25.55,-25.71,0,*60
1516594003.41,63184,3.0,72242.8,-19.67,-25.55,-25.65,0,*62
1516594004.7,63185,3.0,72238.8,-19.69,-25.55,-25.61,0,*69
1516594005.99,63186,3.0,72248.8,-19.69,-25.45,-25.55,0,*6C
1516594007.22,63187,3.0,72244.3,-19.67,-25.23,-25.39,0,*69
1516594008.52,63188,3.0,72246.0,-19.69,-25.55,-25.55,0,*63
1516594009.8,63189,3.0,72244.3,-19.69,-25.61,-25.71,0,*63
1516594011.08,63190,3.0,72240.5,-19.69,-25.61,-25.71,0,*6B
1516594012.36,63191,3.0,72242.8,-19.69,-25.61,-25.71,0,*6A
1516594013.59,63192,3.0,72238.0,-19.67,-25.39,-25.49,0,*61
1516594014.84,63193,3.0,72240.8,-19.69,-25.13,-25.39,0,*61
1516594016.06,63194,3.0,72240.5,-19.67,-25.09,-25.23,0,*68
1516594017.32,63195,3.0,72240.5,-19.67,-25.49,-25.55,0,*6C
1516594018.58,63196,3.0,72238.5,-19.67,-25.55,-25.65,0,*61
1516594019.86,63197,3.0,72242.0,-19.65,-25.55,-25.65,0,*62
1516594021.12,63198,3.0,72240.3,-19.67,-25.03,-25.09,0,*66
1516594022.39,63199,3.0,72240.3,-19.65,-24.87,-24.93,0,*6A
1516594023.64,63200,3.0,72242.0,-19.65,-24.93,-25.09,0,*6E
1516594024.93,63201,3.0,72240.5,-19.65,-25.55,-25.65,0,*6E
1516594026.22,63202,3.0,72236.8,-19.65,-25.55,-25.65,0,*6D
1516594027.47,63203,3.0,72236.5,-19.65,-25.23,-25.39,0,*64
1516594028.75,63204,3.0,72240.8,-19.65,-25.03,-25.09,0,*62
1516594030.0,63205,3.0,72240.0,-19.63,-25.03,-25.23,0,*6D
1516594031.22,63206,3.0,72240.8,-19.63,-25.19,-25.23,0,*65
1516594032.5,63207,3.0,72240.5,-19.65,-25.49,-25.55,0,*66
1516594033.79,63208,3.0,72246.3,-19.65,-25.39,-25.55,0,*6E
1516594035.04,63209,3.0,72244.5,-19.65,-25.35,-25.39,0,*69
1516594036.29,63210,3.0,72242.8,-19.65,-25.23,-25.39,0,*66
1516594037.52,63211,3.0,72242.8,-19.63,-25.23,-25.49,0,*66
1516594038.77,63212,3.0,72244.0,-19.63,-25.71,-25.87,0,*60
1516594040.05,63213,3.0,72244.8,-19.65,-25.71,-25.87,0,*67
1516594041.31,63214,3.0,72246.5,-19.65,-25.91,-26.03,0,*61
1516594042.55,63215,3.0,72242.8,-19.63,-25.75,-25.87,0,*63
1516594043.84,63216,3.0,72252.3,-19.63,-25.55,-25.71,0,*6B
1516594045.12,63217,3.0,72250.0,-19.65,-25.65,-25.75,0,*6B
1516594046.38,63218,3.0,72244.8,-19.65,-25.65,-25.65,0,*65
1516594047.69,63219,3.0,72244.0,-19.65,-25.55,-25.71,0,*62
1516594048.94,63220,3.0,72246.0,-19.65,-25.23,-25.23,0,*6E
1516594050.23,63221,3.0,72244.8,-19.65,-25.03,-25.09,0,*65
1516594051.48,63222,3.0,72248.5,-19.65,-25.09,-25.09,0,*6C
1516594052.73,63223,3.0,72244.5,-19.63,-25.03,-25.19,0,*60
1516594053.98,63224,3.0,72246.8,-19.63,-25.03,-25.09,0,*66
1516594055.2,63225,3.0,72242.5,-19.63,-25.23,-25.23,0,*6D
1516594056.48,63226,3.0,72238.3,-19.63,-25.55,-25.71,0,*68
1516594057.71,63227,3.0,72236.0,-19.59,-25.49,-25.61,0,*6C
1516594058.95,63228,3.0,72238.5,-19.59,-25.49,-25.61,0,*63
1516594060.19,63229,3.0,72232.0,-19.59,-25.35,-25.45,0,*6F
1516594061.43,63230,3.0,72232.3,-19.59,-24.97,-25.03,0,*6C
1516594062.72,63231,3.0,72232.5,-19.59,-24.71,-24.87,0,*68
1516594064.0,63232,3.0,72232.8,-19.59,-24.71,-24.87,0,*6B
1516594065.3,63233,3.0,72236.0,-19.57,-24.67,-24.83,0,*67
1516594066.59,63234,3.0,72232.8,-19.59,-24.71,-24.71,0,*64
1516594067.9,63235,3.0,72236.5,-19.57,-24.71,-24.71,0,*6B
1516594069.15,63236,3.0,72232.5,-19.55,-24.83,-24.93,0,*6B
1516594070.43,63237,3.0,72238.3,-19.57,-25.03,-25.13,0,*68
1516594071.71,63238,3.0,72232.5,-19.57,-25.45,-25.49,0,*6A
1516594072.96,63239,3.0,72236.5,-19.55,-25.39,-25.45,0,*6E
1516594074.18,63240,3.0,72236.8,-19.55,-25.13,-25.23,0,*68
1516594075.4,63241,3.0,72236.5,-19.55,-25.09,-25.23,0,*62
1516594076.65,63242,3.0,72236.8,-19.53,-24.97,-24.93,0,*6B
1516594077.88,63243,3.0,72232.5,-19.55,-25.39,-25.39,0,*68
1516594079.13,63244,3.0,72238.0,-19.55,-25.29,-25.39,0,*6E
1516594080.37,63245,3.0,72242.5,-19.53,-25.23,-25.23,0,*68
1516594081.62,63246,3.0,72242.0,-19.55,-25.29,-25.39,0,*6C
1516594082.84,63247,3.0,72242.0,-19.51,-25.23,-25.23,0,*68
1516594084.09,63248,3.0,72238.8,-19.55,-25.39,-25.45,0,*68
1516594085.34,63249,3.0,72242.3,-19.55,-25.39,-25.45,0,*69
1516594086.59,63250,3.0,72238.5,-19.53,-25.61,-25.61,0,*6C
1516594087.84,63251,3.0,72240.3,-19.55,-25.45,-25.39,0,*60
1516594089.14,63252,3.0,72236.0,-19.53,-25.29,-25.29,0,*6E
1516594090.39,63253,3.0,72240.5,-19.53,-25.23,-25.13,0,*6C
1516594091.63,63254,3.0,72240.0,-19.53,-25.23,-25.23,0,*68
1516594092.86,63255,3.0,72240.0,-19.55,-25.65,-25.65,0,*6F
1516594094.16,63256,3.0,72236.5,-19.53,-25.45,-25.55,0,*6B
1516594095.45,63257,3.0,72236.3,-19.53,-25.55,-25.65,0,*68
1516594096.72,63258,3.0,72240.5,-19.53,-25.45,-25.61,0,*62
1516594097.98,63259,3.0,72238.5,-19.53,-25.61,-25.61,0,*65
1516594099.23,63260,3.0,72236.0,-19.55,-25.65,-25.75,0,*68
1516594100.53,63261,3.0,72236.8,-19.53,-25.81,-25.81,0,*6E
1516594101.81,63262,3.0,72236.5,-19.53,-25.61,-25.55,0,*6A
1516594103.09,63263,3.0,72232.5,-19.53,-25.65,-25.75,0,*6D
1516594104.38,63264,3.0,72232.5,-19.53,-25.75,-25.65,0,*6A
1516594105.65,63265,3.0,72240.0,-19.53,-25.23,-25.29,0,*60
1516594106.87,63266,3.0,72236.0,-19.55,-25.23,-25.23,0,*6F
1516594108.12,63267,3.0,72240.5,-19.55,-25.39,-25.45,0,*65
1516594109.37,63268,3.0,72240.8,-19.55,-25.61,-25.55,0,*66
1516594110.68,63269,3.0,72236.3,-19.53,-25.75,-25.75,0,*66